Location: Caser�o Fogas de Montcl�s
(41.7333°N, 2.4500°E)
Time: 06:14:58
(UTC+00:00)

Daily predictions for brighter satellites

Satellite Brightness Start Highest point End
(mag) Time Altitude Azimuth Time Altitude Azimuth Time Altitude Azimuth
Meteor 1-16 Rocket 4.4 18:44:04 10° SSE 18:49:12 47° E 18:54:30 10° NNE
SJ-6B 4.2 18:46:47 10° ESE 18:50:05 24° ENE 18:53:25 10° NNE
Aureole 2 Rocket 3.3 18:46:46 10° NNW 18:50:08 51° WSW 18:53:22 10° S
Cosmos 1943 Rocket 2.8 18:48:05 10° NNW 18:53:33 61° WSW 18:59:03 10° S
Cosmos 1825 Rocket 4.1 18:49:47 10° N 18:53:55 39° ENE 18:57:59 10° SSE
H-2A R/B 2.4 18:49:02 10° SE 18:53:57 45° ENE 18:58:46 10° N
Resurs 01 Rocket 3.6 18:55:32 10° E 18:57:00 12° ENE 18:58:29 10° NE
Cosmos 1461 4.4 18:54:01 10° N 18:57:48 25° NE 19:01:39 10° ESE
Cosmos 2228 3.5 18:54:50 10° SSE 18:58:50 40° E 19:02:54 10° NNE
Nadezhda 1 Rocket 4.5 18:53:01 10° SSE 18:58:53 40° E 19:04:44 10° NNE
Cosmos 2251 Rocket 4.5 18:55:31 10° SW 19:00:46 56° WNW 19:06:04 10° NNE
ATLAS 2AS CENTAUR R/B 3.2 18:54:08 10° NNW 19:01:33 51° NE 19:08:18 10° ESE
CZ-2C R/B 3.2 18:58:06 10° SE 19:02:46 47° ENE 19:07:19 10° N
SeaSat 1 2.9 18:58:42 10° NNE 19:03:36 67° WNW 19:08:28 10° SW
HJ-1C 3.5 19:00:19 10° S 19:03:40 79° WSW 19:07:03 10° NNW
USA 186 2.3 19:02:57 10° SE 19:06:05 40° ENE 19:09:06 10° N
Cosmos 2369 Rocket 2.7 19:01:24 10° NNW 19:07:01 63° WSW 19:12:34 10° S
Cosmos 1758 Rocket 3.5 19:03:56 10° N 19:08:15 69° E 19:12:31 10° SSE
Meteor 1-21 Rocket 4.3 19:02:43 10° NNW 19:08:16 83° W 19:13:49 10° S
Ariane Rocket 3.0 19:03:58 10° SSE 19:08:59 71° ENE 19:14:03 10° N
Cosmos 1140 Rocket 4.0 19:04:52 10° SSE 19:09:32 35° E 19:14:12 10° NE
BREEZE M DEB (TANK) 4.3 18:54:39 10° SW 19:09:52 71° SSE 19:14:02 10° ENE
SJ-11-01 4.3 19:06:22 10° SSE 19:11:04 88° E 19:15:50 10° NNW
SL-4 R/B 3.0 19:08:22 10° W 19:11:34 37° NNW 19:14:47 10° NE
Cosmos 1606 Rocket 3.6 19:09:45 10° S 19:14:08 65° E 19:18:34 10° NNE
Cosmos 1340 Rocket 3.5 19:11:53 10° SSE 19:15:32 32° E 19:19:09 10° NNE
Cosmos 1953 Rocket 3.9 19:12:00 10° N 19:16:20 47° ENE 19:20:40 10° SSE
Cosmos 1703 3.5 19:13:21 10° N 19:17:14 51° E 19:21:06 10° SSE
MOS 1 4.3 19:13:40 10° SSE 19:19:15 67° ENE 19:24:53 10° N
Cosmos 614 Rocket 3.9 19:14:22 10° S 19:19:33 74° ESE 19:24:46 10° NNE
Cosmos 1190 Rocket 4.2 19:14:31 10° S 19:19:38 51° ESE 19:24:45 10° NNE
IRIDIUM 104 4.4 19:15:39 10° N 19:20:53 87° W 19:26:06 10° S
Cosmos 1328 3.9 19:16:59 10° N 19:20:55 54° E 19:24:50 10° SSE
Cosmos 1908 3.2 19:18:18 10° S 19:22:06 61° E 19:25:57 10° NNE
Cosmos 2074 Rocket 4.0 19:19:56 10° N 19:26:15 89° W 19:32:33 10° S
Cosmos 1726 3.2 19:24:11 10° SSW 19:27:48 49° W 19:31:27 10° N
APEX 4.3 19:23:27 10° NNW 19:29:49 64° ENE 19:33:59 16° SE
Cosmos 1943 4.3 19:24:57 10° SW 19:30:23 47° WNW 19:35:53 10° NNE
STARLINK-67 3.6 19:30:10 10° NW 19:32:30 30° NNE 19:33:19 24° ENE
SL-24 R/B 3.9 19:30:05 10° NNE 19:33:55 48° E 19:37:28 10° S
Cosmos 1656 Rocket 3.8 19:29:09 10° NNW 19:34:48 79° WSW 19:40:20 10° SSE
DMSP B5D2-2 4.4 19:30:11 10° NNE 19:35:08 42° E 19:40:04 10° S
Abrixas rocket 3.5 19:32:41 10° NW 19:35:19 28° NNE 19:36:50 18° ENE
STARLINK-29 3.1 19:32:50 10° WSW 19:36:01 72° NW 19:39:14 10° NE
BREEZE-M DEB (TANK) 4.2 19:31:10 10° WNW 19:37:00 45° NNE 19:38:38 22° ENE
MetOp-A 4.3 19:34:34 14° SE 19:39:01 53° ENE 19:44:13 10° N
Cosmos 1610 Rocket 4.4 19:36:57 10° N 19:43:10 80° E 19:49:17 10° S
CZ-2C R/B 2.9 19:39:28 10° NNE 19:44:24 43° E 19:49:22 10° S
Cosmos 407 Rocket 3.6 19:41:05 10° SSW 19:46:14 78° WNW 19:51:23 10° NNE
ARGOS 3.4 19:42:05 10° S 19:47:27 73° WSW 19:52:50 10° NNW
Cosmos 676 Rocket 4.1 19:43:28 10° S 19:48:36 55° ESE 19:53:44 10° NNE
Meteor 1-11 4.2 19:46:28 10° N 19:52:14 88° ENE 19:57:48 10° S
Cosmos 1295 Rocket 4.5 19:49:44 10° N 19:56:04 74° E 20:01:38 14° SSE
SPOT 3 Rocket 3.5 19:53:38 16° SSE 19:57:49 83° ENE 20:03:02 10° NNW
Resurs 1-3 3.5 19:58:05 28° SSE 20:00:20 71° ENE 20:04:43 10° N
CZ-2C R/B 3.8 19:55:46 10° NNE 20:00:29 82° WNW 20:05:04 10° SSW
STARLINK-1201 4.1 20:03:01 10° NW 20:06:00 32° NNE 20:06:17 31° NE
COSMOS 2455 2.9 20:00:47 10° NNW 20:06:49 67° ENE 20:09:32 33° SE
SL-08 RB Rocket 4.2 20:02:48 12° S 20:06:59 59° W 20:11:33 10° NNW
STARLINK-1228 3.5 20:04:55 10° NW 20:07:12 40° N 20:07:12 40° N
Cosmos 1954 Rocket 3.9 20:05:40 10° SSW 20:10:55 84° ESE 20:16:10 10° NNE
FALCON 9 DEB 4.4 20:08:32 10° WSW 20:11:52 42° NNW 20:14:16 17° NE
MOS 1 Rocket 3.6 20:08:19 10° NNE 20:13:46 87° ESE 20:19:12 10° SSW
Cosmos 2058 Rocket 3.9 20:12:02 10° SSW 20:16:26 52° W 20:20:50 10° N
STARLINK-52 4.4 20:13:34 10° W 20:16:34 36° NNW 20:18:09 22° NNE
Cosmos 1892 4.4 20:15:04 10° NNE 20:17:06 21° NE 20:17:06 21° NE
BREEZE M DEB (TANK) 2.7 20:16:46 10° WSW 20:19:48 90° SSE 20:28:14 10° ENE
NOSS 3-4 (A) 4.2 20:13:18 10° NW 20:20:21 65° WSW 20:25:15 24° SSE
NOSS 3-4 (C) 4.2 20:13:24 10° NW 20:20:28 66° WSW 20:25:20 24° SSE
ATLAS 5 CENTAUR R/B 3.1 20:18:41 10° WSW 20:22:32 36° NW 20:26:49 10° NNE
CZ-4C R/B 4.5 20:20:15 10° NNW 20:25:19 21° NNE 20:29:18 14° ENE
Cosmos 2341 Rocket 4.0 20:18:53 10° N 20:25:19 90° SW 20:29:06 27° S
Cosmos 1763 Rocket 4.2 20:26:14 10° N 20:30:57 35° ENE 20:30:58 35° ENE
Resurs 01 Rocket 1.7 20:31:53 52° S 20:32:52 75° WSW 20:37:17 10° NNW
Cosmos 921 Rocket 3.6 20:29:00 10° NNW 20:33:03 51° WSW 20:34:07 40° SSW
H-2A R/B 4.3 20:29:33 10° SW 20:33:32 22° W 20:37:28 10° NW
Cosmos 1300 3.5 20:35:17 32° SW 20:36:42 49° W 20:40:25 10° N
Cosmos 1461 4.0 20:32:43 10° NW 20:37:04 44° WSW 20:38:11 37° SSW
Cosmos 2218 Rocket 3.9 20:31:49 10° N 20:38:02 71° E 20:39:41 50° SE
Landsat 7 4.3 20:42:03 45° NE 20:42:03 45° NE 20:46:07 10° N
Iridium 4 Rocket 3.7 20:38:58 10° N 20:41:55 41° NNE 20:41:55 41° NNE
USA 234 3.1 20:38:18 10° NE 20:44:50 72° SE 20:51:22 10° SW
Cosmos 1812 Rocket 3.6 20:46:09 69° N 20:46:09 69° N 20:49:58 10° N
In-Cosmos 22 Rocket 4.2 20:40:37 10° N 20:46:29 83° E 20:47:33 61° SSE
USA 245 4.2 20:46:41 62° SE 20:47:34 72° ENE 20:53:54 10° N
Cosmos 220 Rocket 4.2 20:44:44 10° NNW 20:48:32 67° N 20:48:32 67° N
Cosmos 2181 Rocket 4.1 20:46:49 19° SSW 20:51:26 72° W 20:57:37 10° N
SL-4 R/B 4.1 20:49:35 10° NW 20:51:52 17° N 20:52:29 16° N
ATLAS 2AS CENTAUR R/B 3.9 20:45:38 10° NW 20:52:14 37° WSW 20:55:54 22° SSW
SL-8 Rocket 4.1 20:45:58 10° N 20:52:18 77° W 20:54:31 43° S
RESURS DK-1 4.2 20:49:35 10° N 20:51:45 22° NNE 20:51:45 22° NNE
MetOp-B 4.1 20:53:18 68° S 20:54:00 83° WSW 20:59:23 10° NNW
Cosmos 864 Rocket 4.3 20:48:08 10° N 20:54:22 85° E 20:55:29 62° SSE
Cosmos 2058 3.6 20:51:00 10° N 20:54:05 50° N 20:54:05 50° N
Meteor 2-10 Rocket 4.5 20:58:38 35° NE 20:58:38 35° NE 21:02:02 10° NNE
Spot 2 Rocket 3.4 20:59:40 84° WSW 20:59:43 84° WSW 21:04:52 10° NNW
Cosmos 1850 Rocket 3.9 21:02:15 79° N 21:02:15 79° N 21:07:10 10° NNE
Cosmos 2366 rocket 4.0 20:59:39 10° N 21:05:49 76° W 21:06:58 59° SSW
COSMOS 2406 3.4 21:08:17 60° NE 21:08:17 60° NE 21:12:58 10° NNE
Cosmos 841 Rocket 4.5 21:04:17 10° N 21:08:12 37° NE 21:08:12 37° NE
Cosmos 1076 Rocket 4.5 21:07:46 10° NNW 21:11:04 45° NW 21:11:04 45° NW
Nadezhda 3 Rocket 4.4 21:15:55 51° NE 21:15:55 51° NE 21:20:57 10° NNE
SPOT 5 4.2 21:22:33 28° N 21:22:33 28° N 21:24:43 10° N
Cosmos 468 Rocket 4.4 21:15:56 10° NNW 21:20:19 60° NW 21:20:19 60° NW
Terra 3.3 21:25:37 30° NNE 21:25:37 30° NNE 21:28:12 10° N
ERS-1 Rocket 3.7 21:27:10 50° N 21:27:10 50° N 21:30:51 10° NNW
Cosmos 2369 4.5 21:22:59 10° NNW 21:27:19 43° NNE 21:27:19 43° NNE
Cosmos 1697 Rocket 3.4 21:25:47 10° NNW 21:30:07 45° NNE 21:30:07 45° NNE
Cosmos 1821 Rocket 4.2 21:40:28 10° N 21:45:57 68° N 21:45:57 68° N
SL-16 R/B 4.4 21:47:34 10° N 21:50:12 15° NE 21:50:12 15° NE
Cosmos 2322 Rocket 4.4 21:55:25 10° NNE 21:57:48 14° NE 21:57:48 14° NE
ATLAS CENTAUR R/B 4.3 21:55:09 10° NNW 21:55:38 13° NNW 21:55:38 13° NNW
Cosmos 1980 Rocket 3.5 21:55:36 10° NNW 21:59:03 35° N 21:59:03 35° N
CZ-4C R/B 3.2 22:07:59 10° NNW 22:14:28 61° NNE 22:14:28 61° NNE
USA 234 4.3 22:21:33 10° NE 22:27:35 41° NNW 22:33:37 10° W
Cosmos 2082 Rocket 4.0 22:30:55 26° N 22:30:55 26° N 22:33:23 10° NNE
Cosmos 1833 Rocket 4.3 22:38:06 30° NNW 22:38:06 30° NNW 22:41:46 10° N
Cosmos 2344 4.4 22:37:30 10° NW 22:47:26 81° NE 22:48:33 75° ESE
SL-16 R/B 4.3 23:30:07 10° NNW 23:32:03 22° NNW 23:32:03 22° NNW
Cosmos 2360 Rocket 4.3 23:32:34 10° N 23:34:45 22° N 23:34:45 22° N
Cosmos 2322 Rocket 4.3 23:37:48 10° NNW 23:39:36 21° NNW 23:39:36 21° NNW
